Port Isabel, TX

12:33 AM CST on January 23, 2018 (GMT -0600)
Port Isabel-Cameron County

Weather History for KPIL - October, 2012

Change the Weather History Date:

Wednesday, October 31, 2012

  Actual Average (KBRO) Record (KBRO)
Temperature  
Mean Temperature 77 °F -  
Max Temperature 87 °F 80 °F 94 °F (1947)
Min Temperature 70 °F 62 °F 35 °F (1993)
Cooling Degree Days 12    
Growing Degree Days 27 (Base 50)    
Moisture  
Dew Point 70 °F    
Average Humidity 80    
Maximum Humidity 91    
Minimum Humidity 56    
Precipitation  
Precipitation 0.15 in - - ()
Sea Level Pressure  
Sea Level Pressure 29.97 in    
Wind  
Wind Speed 7 mph (SE)    
Max Wind Speed 16 mph    
Max Gust Speed 24 mph    
Visibility 9 miles    
Events Rain , Thunderstorm    
Averages and records for this station are not official NWS values.
T = Trace of Precipitation, MM = Missing Value Source: NWS Daily Summary

Daily Weather History Graph

Daily Weather History Graph

Search for Another Location

Airport or City:

Trip Planner

Search our weather history database for the weather conditions in past years. The results will help you decide how hot, cold, wet, or windy it might be!

Date:

Astronomy

Oct. 31, 2012 Rise Set
Actual Time 7:37 AM CDT 6:47 PM CDT
Civil Twilight 7:14 AM CDT 7:11 PM CDT
Nautical Twilight 6:46 AM CDT 7:38 PM CDT
Astronomical Twilight 6:19 AM CDT 8:05 PM CDT
Moon 8:10 PM CDT (10/31) 9:10 AM CDT (10/31)
Length of Visible Light 11h 57m
Length of Day
11h 09m
Full, 97% of the Moon is Illuminated
Oct 31
Full
Nov 6
Last Quarter
Nov 13
New
Nov 20
First Quarter
Nov 28
Full

Hourly Weather History & Observations

Time (CDT) Temp. Heat Index Dew Point Humidity Pressure Visibility Wind Dir Wind Speed Gust Speed Precip Events Conditions
12:53 AM 70.0 °F - 64.9 °F 84% 29.99 in 10.0 mi SSE 4.6 mph - N/A   Partly Cloudy
1:53 AM 70.0 °F - 64.9 °F 84% 29.98 in 10.0 mi SSE 5.8 mph - N/A   Clear
2:53 AM 70.0 °F - 66.0 °F 87% 29.98 in 10.0 mi SSE 4.6 mph - N/A   Clear
3:53 AM 70.0 °F - 66.0 °F 87% 29.97 in 10.0 mi SE 5.8 mph - N/A   Partly Cloudy
4:53 AM 71.1 °F - 66.9 °F 87% 29.96 in 10.0 mi SE 5.8 mph - N/A   Scattered Clouds
5:53 AM 71.1 °F - 66.9 °F 87% 29.96 in 10.0 mi SE 4.6 mph - N/A   Clear
6:53 AM 70.0 °F - 66.9 °F 90% 29.97 in 10.0 mi SSE 3.5 mph - N/A   Clear
7:53 AM 71.1 °F - 68.0 °F 90% 29.99 in 8.0 mi SSE 3.5 mph - N/A   Clear
8:53 AM 73.0 °F - 70.0 °F 90% 30.01 in 8.0 mi South 4.6 mph - N/A   Clear
9:53 AM 79.0 °F - 68.0 °F 69% 30.01 in 10.0 mi South 9.2 mph - N/A   Clear
10:53 AM 84.0 °F 86.5 °F 66.9 °F 56% 30.02 in 10.0 mi South 10.4 mph - N/A   Clear
11:53 AM 84.9 °F 88.2 °F 68.0 °F 57% 30.02 in 10.0 mi SE 8.1 mph - N/A   Partly Cloudy
12:53 PM 82.9 °F 88.0 °F 72.0 °F 69% 30.00 in 10.0 mi East 12.7 mph - N/A   Partly Cloudy
1:53 PM 82.0 °F 86.7 °F 72.0 °F 71% 29.96 in 10.0 mi ESE 10.4 mph 16.1 mph N/A   Mostly Cloudy
2:16 PM 82.4 °F 87.2 °F 71.6 °F 70% 29.96 in 10.0 mi East 16.1 mph - N/A   Overcast
2:53 PM 81.0 °F 85.2 °F 72.0 °F 74% 29.95 in 10.0 mi East 16.1 mph 24.2 mph 0.00 in Rain Light Rain
3:53 PM 81.0 °F 84.4 °F 70.0 °F 69% 29.94 in 7.0 mi SE 10.4 mph 21.9 mph 0.00 in Rain Light Rain
4:22 PM 78.8 °F - 73.4 °F 83% 29.94 in 4.0 mi South 6.9 mph - 0.11 in Rain , Thunderstorm Thunderstorms and Rain
4:35 PM 77.0 °F - 73.4 °F 89% 29.94 in 2.5 mi WSW 4.6 mph - 0.14 in Rain Rain
4:42 PM 78.8 °F - 73.4 °F 83% 29.94 in 4.0 mi Calm Calm - 0.15 in Rain , Thunderstorm Light Thunderstorms and Rain
4:53 PM 78.1 °F - 73.9 °F 87% 29.94 in 7.0 mi ESE 8.1 mph - 0.15 in Rain , Thunderstorm Light Thunderstorms and Rain
5:17 PM 78.8 °F - 71.6 °F 78% 29.95 in 10.0 mi SE 10.4 mph - 0.00 in Rain Light Rain
5:53 PM 78.1 °F - 71.1 °F 79% 29.95 in 10.0 mi SE 11.5 mph - 0.00 in   Partly Cloudy
6:53 PM 78.1 °F - 71.1 °F 79% 29.96 in 10.0 mi SSE 10.4 mph - N/A   Clear
7:53 PM 77.0 °F - 71.1 °F 82% 29.97 in 10.0 mi SSE 8.1 mph - N/A   Clear
8:53 PM 73.9 °F - 71.1 °F 91% 29.99 in 10.0 mi SSE 4.6 mph - N/A   Clear
9:53 PM 73.0 °F - 70.0 °F 90% 30.00 in 10.0 mi SSE 5.8 mph - N/A   Clear
10:53 PM 73.9 °F - 70.0 °F 87% 30.01 in 10.0 mi SSE 6.9 mph - N/A   Clear